VLG74XH LEMG-LEBB

Flight info

Callsign VLG74XH
Flight time 1h 15m
Altitude 34000
Route BLN N865 VTB N867 DGO
Aircraft A320/M-SDE3FGHIRWY/LB1

Departure

Time 2026-05-07 16:38
Airport Málaga-Costa del Sol Airport (LEMG)

Arrival

Time 2026-05-07 17:53
Airport Bilbao Airport (LEBB)
Time Latitude Longitude Altitude Speed Heading
2026-05-07 16:11 36.67685 -4.49506 40 ft 0 kts 42°
2026-05-07 16:27 36.67678 -4.49514 41 ft 4 kts 43°
2026-05-07 16:27 36.67659 -4.49538 40 ft 4 kts 53°
2026-05-07 16:27 36.67647 -4.49566 41 ft 4 kts 87°
2026-05-07 16:28 36.67653 -4.49590 38 ft 4 kts 125°
2026-05-07 16:28 36.67665 -4.49610 39 ft 0 kts 131°
2026-05-07 16:31 36.67659 -4.49602 39 ft 3 kts 135°
2026-05-07 16:31 36.67624 -4.49608 41 ft 7 kts 210°
2026-05-07 16:31 36.67581 -4.49648 42 ft 9 kts 219°
2026-05-07 16:32 36.67565 -4.49713 43 ft 9 kts 296°
2026-05-07 16:32 36.67606 -4.49776 43 ft 10 kts 311°
2026-05-07 16:32 36.67658 -4.49849 43 ft 12 kts 312°
2026-05-07 16:32 36.67719 -4.49935 43 ft 14 kts 312°
2026-05-07 16:33 36.67787 -4.50030 44 ft 15 kts 311°
2026-05-07 16:33 36.67862 -4.50135 44 ft 17 kts 312°
2026-05-07 16:33 36.67946 -4.50253 44 ft 19 kts 311°
2026-05-07 16:33 36.68030 -4.50371 44 ft 19 kts 311°
2026-05-07 16:34 36.68123 -4.50501 44 ft 21 kts 311°
2026-05-07 16:34 36.68211 -4.50624 45 ft 19 kts 311°
2026-05-07 16:34 36.68301 -4.50751 46 ft 20 kts 311°
2026-05-07 16:34 36.68393 -4.50879 49 ft 20 kts 313°
2026-05-07 16:35 36.68467 -4.50984 52 ft 13 kts 311°
2026-05-07 16:35 36.68505 -4.51052 54 ft 7 kts 282°
2026-05-07 16:35 36.68502 -4.51078 54 ft 2 kts 256°
2026-05-07 16:35 36.68495 -4.51090 51 ft 2 kts 235°
2026-05-07 16:36 36.68488 -4.51100 52 ft 1 kts 229°
2026-05-07 16:36 36.68483 -4.51107 54 ft 2 kts 225°
2026-05-07 16:36 36.68476 -4.51114 52 ft 1 kts 219°
2026-05-07 16:36 36.68448 -4.51128 58 ft 6 kts 195°
2026-05-07 16:37 36.68374 -4.51132 61 ft 15 kts 161°
2026-05-07 16:37 36.68292 -4.51029 53 ft 20 kts 130°
2026-05-07 16:37 36.68054 -4.50694 54 ft 85 kts 131°
2026-05-07 16:37 36.67534 -4.49965 52 ft 137 kts 131°
2026-05-07 16:38 36.66844 -4.49021 431 ft 149 kts 132°
2026-05-07 16:38 36.66130 -4.48060 1052 ft 153 kts 131°
2026-05-07 16:38 36.65413 -4.47015 1508 ft 167 kts 131°
2026-05-07 16:38 36.64609 -4.45867 1882 ft 185 kts 133°
2026-05-07 16:39 36.63716 -4.44612 2219 ft 203 kts 133°
2026-05-07 16:39 36.62709 -4.43212 2497 ft 231 kts 133°
2026-05-07 16:39 36.61623 -4.41704 3234 ft 236 kts 133°
2026-05-07 16:39 36.60515 -4.40152 4101 ft 239 kts 133°
2026-05-07 16:40 36.59724 -4.38332 4892 ft 247 kts 104°
2026-05-07 16:40 36.59416 -4.36228 5805 ft 247 kts 101°
2026-05-07 16:40 36.59089 -4.34119 6657 ft 250 kts 102°
2026-05-07 16:40 36.58741 -4.31986 7454 ft 253 kts 102°
2026-05-07 16:41 36.58557 -4.29792 8228 ft 259 kts 86°
2026-05-07 16:41 36.58962 -4.27593 8923 ft 268 kts 65°
2026-05-07 16:41 36.59982 -4.25620 9601 ft 275 kts 50°
2026-05-07 16:41 36.61191 -4.23744 10331 ft 280 kts 50°
2026-05-07 16:42 36.62488 -4.21932 11061 ft 282 kts 39°
2026-05-07 16:42 36.64109 -4.20536 11673 ft 290 kts 24°
2026-05-07 16:42 36.66055 -4.19612 11897 ft 311 kts 15°
2026-05-07 16:42 36.68187 -4.18761 12102 ft 333 kts 15°
2026-05-07 16:43 36.70406 -4.17867 12622 ft 342 kts 15°
2026-05-07 16:43 36.72709 -4.16941 13208 ft 346 kts 15°
2026-05-07 16:43 36.74993 -4.16044 13863 ft 349 kts 14°
2026-05-07 16:43 36.77327 -4.15139 14480 ft 353 kts 14°
2026-05-07 16:44 36.79687 -4.14225 15068 ft 357 kts 13°
2026-05-07 16:44 36.82070 -4.13297 15644 ft 360 kts 13°
2026-05-07 16:44 36.84473 -4.12361 16227 ft 363 kts 12°
2026-05-07 16:44 36.86903 -4.11419 16826 ft 368 kts 12°
2026-05-07 16:45 36.89362 -4.10465 17432 ft 372 kts 11°
2026-05-07 16:45 36.91847 -4.09497 18042 ft 376 kts 11°
2026-05-07 16:45 36.94354 -4.08517 18674 ft 378 kts 11°
2026-05-07 16:45 36.96871 -4.07528 19267 ft 380 kts 11°
2026-05-07 16:46 36.98547 -4.06870 19625 ft 382 kts 11°
2026-05-07 16:46 37.01925 -4.05544 20318 ft 386 kts 11°
2026-05-07 16:46 37.04500 -4.04531 20831 ft 390 kts 11°
2026-05-07 16:46 37.07099 -4.03509 21331 ft 393 kts 11°
2026-05-07 16:47 37.08867 -4.02814 21680 ft 395 kts 11°
2026-05-07 16:47 37.11503 -4.01776 22170 ft 398 kts 11°
2026-05-07 16:47 37.14124 -4.00745 22659 ft 402 kts 11°
2026-05-07 16:47 37.16810 -3.99690 23154 ft 405 kts 11°
2026-05-07 16:48 37.19498 -3.98635 23619 ft 407 kts 10°
2026-05-07 16:48 37.22212 -3.97598 24035 ft 408 kts
2026-05-07 16:48 37.24944 -3.96580 24444 ft 410 kts
2026-05-07 16:48 37.27692 -3.95567 24858 ft 412 kts
2026-05-07 16:49 37.30455 -3.94551 25271 ft 415 kts
2026-05-07 16:49 37.33233 -3.93525 25688 ft 417 kts
2026-05-07 16:49 37.36027 -3.92485 26101 ft 420 kts
2026-05-07 16:49 37.38834 -3.91433 26507 ft 422 kts
2026-05-07 16:50 37.41658 -3.90372 26932 ft 424 kts
2026-05-07 16:50 37.44494 -3.89311 27338 ft 426 kts
2026-05-07 16:50 37.47343 -3.88245 27731 ft 428 kts
2026-05-07 16:50 37.50206 -3.87170 28118 ft 431 kts
2026-05-07 16:51 37.53086 -3.86086 28500 ft 433 kts
2026-05-07 16:51 37.55983 -3.84994 28914 ft 435 kts
2026-05-07 16:51 37.58895 -3.83893 29314 ft 438 kts
2026-05-07 16:51 37.61823 -3.82783 29694 ft 440 kts
2026-05-07 16:52 37.64761 -3.81672 30060 ft 443 kts
2026-05-07 16:52 37.67717 -3.80557 30452 ft 444 kts
2026-05-07 16:52 37.70642 -3.79457 30812 ft 445 kts
2026-05-07 16:52 37.73618 -3.78336 31153 ft 447 kts
2026-05-07 16:53 37.76593 -3.77210 31590 ft 445 kts
2026-05-07 16:53 37.79560 -3.76084 32030 ft 445 kts
2026-05-07 16:53 37.82523 -3.74957 32465 ft 444 kts
2026-05-07 16:53 37.85472 -3.73832 32892 ft 443 kts
2026-05-07 16:54 37.88425 -3.72707 33354 ft 443 kts
2026-05-07 16:54 37.91374 -3.71584 33791 ft 442 kts
2026-05-07 16:54 37.94317 -3.70460 33891 ft 439 kts
2026-05-07 16:55 38.00111 -3.68243 33895 ft 432 kts
2026-05-07 16:55 38.05865 -3.66054 33907 ft 431 kts
2026-05-07 16:56 38.11623 -3.63870 33907 ft 431 kts
2026-05-07 16:56 38.20242 -3.61977 33905 ft 412 kts 353°
2026-05-07 16:57 38.25923 -3.61440 33904 ft 412 kts 354°
2026-05-07 16:57 38.31647 -3.60890 33910 ft 413 kts 354°
2026-05-07 16:58 38.37383 -3.60337 33914 ft 413 kts 354°
2026-05-07 16:58 38.43105 -3.59781 33914 ft 413 kts 354°
2026-05-07 16:59 38.48830 -3.59228 33911 ft 412 kts 354°
2026-05-07 16:59 38.54552 -3.58668 33912 ft 412 kts 354°
2026-05-07 17:00 38.60272 -3.58107 33936 ft 412 kts 354°
2026-05-07 17:00 38.66002 -3.57546 33891 ft 413 kts 354°
2026-05-07 17:01 38.71726 -3.56995 33894 ft 413 kts 354°
2026-05-07 17:01 38.77470 -3.56434 33899 ft 414 kts 354°
2026-05-07 17:02 38.83182 -3.55869 33899 ft 414 kts 354°
2026-05-07 17:02 38.88933 -3.55306 33934 ft 414 kts 354°
2026-05-07 17:03 38.94671 -3.54745 33928 ft 413 kts 354°
2026-05-07 17:03 39.00409 -3.54176 33925 ft 413 kts 354°
2026-05-07 17:04 39.06133 -3.53602 33923 ft 412 kts 354°
2026-05-07 17:04 39.11812 -3.53043 33941 ft 411 kts 354°
2026-05-07 17:05 39.17515 -3.52483 33932 ft 410 kts 354°
2026-05-07 17:05 39.23207 -3.51910 33926 ft 410 kts 354°
2026-05-07 17:06 39.28891 -3.51335 33928 ft 409 kts 354°
2026-05-07 17:06 39.34561 -3.50772 33945 ft 407 kts 354°
2026-05-07 17:07 39.40211 -3.50204 33943 ft 407 kts 354°
2026-05-07 17:07 39.45822 -3.49633 33922 ft 407 kts 354°
2026-05-07 17:08 39.51469 -3.49064 33921 ft 407 kts 354°
2026-05-07 17:08 39.57117 -3.48499 33955 ft 407 kts 354°
2026-05-07 17:09 39.62760 -3.47936 33944 ft 406 kts 354°
2026-05-07 17:09 39.68391 -3.47375 33938 ft 406 kts 354°
2026-05-07 17:10 39.74027 -3.46813 33932 ft 406 kts 354°
2026-05-07 17:10 39.79667 -3.46198 33949 ft 408 kts 356°
2026-05-07 17:11 39.85324 -3.45140 33942 ft 412 kts 359°
2026-05-07 17:11 39.90972 -3.43879 33939 ft 412 kts 359°
2026-05-07 17:12 39.96599 -3.42676 33949 ft 411 kts 359°
2026-05-07 17:12 40.02249 -3.41547 33925 ft 410 kts 359°
2026-05-07 17:13 40.07897 -3.40426 33920 ft 410 kts 359°
2026-05-07 17:13 40.13559 -3.39296 33918 ft 411 kts 359°
2026-05-07 17:14 40.19223 -3.38157 33926 ft 412 kts 359°
2026-05-07 17:14 40.24893 -3.37005 33929 ft 413 kts
2026-05-07 17:15 40.30542 -3.35862 33916 ft 413 kts
2026-05-07 17:15 40.36272 -3.34701 33913 ft 414 kts
2026-05-07 17:16 40.41928 -3.33555 33916 ft 415 kts
2026-05-07 17:16 40.47649 -3.32393 33920 ft 416 kts
2026-05-07 17:17 40.53381 -3.31222 33913 ft 417 kts
2026-05-07 17:17 40.59126 -3.30050 33915 ft 418 kts
2026-05-07 17:18 40.64882 -3.28873 33920 ft 419 kts
2026-05-07 17:18 40.70645 -3.27690 33930 ft 419 kts
2026-05-07 17:19 40.76406 -3.26509 33941 ft 419 kts
2026-05-07 17:19 40.82161 -3.25325 33948 ft 419 kts
2026-05-07 17:20 40.87885 -3.24131 33962 ft 419 kts
2026-05-07 17:20 40.93638 -3.22846 33953 ft 420 kts
2026-05-07 17:21 40.99400 -3.21533 33951 ft 420 kts
2026-05-07 17:21 41.05176 -3.20231 33949 ft 420 kts
2026-05-07 17:22 41.10942 -3.18937 33963 ft 421 kts
2026-05-07 17:22 41.16726 -3.17641 33939 ft 422 kts
2026-05-07 17:23 41.22522 -3.16337 33928 ft 422 kts
2026-05-07 17:23 41.28321 -3.15020 33926 ft 423 kts
2026-05-07 17:24 41.34086 -3.13711 33928 ft 423 kts
2026-05-07 17:24 41.39902 -3.12401 33918 ft 424 kts
2026-05-07 17:25 41.45732 -3.11074 33917 ft 424 kts
2026-05-07 17:25 41.51548 -3.09749 33912 ft 424 kts
2026-05-07 17:26 41.57376 -3.08422 33924 ft 425 kts
2026-05-07 17:26 41.63215 -3.07102 33918 ft 426 kts
2026-05-07 17:27 41.69028 -3.05777 33578 ft 428 kts
2026-05-07 17:27 41.71997 -3.05103 32746 ft 433 kts
2026-05-07 17:27 41.74960 -3.04427 32260 ft 430 kts
2026-05-07 17:28 41.77888 -3.03755 31794 ft 426 kts
2026-05-07 17:28 41.80799 -3.03086 31334 ft 423 kts
2026-05-07 17:28 41.83689 -3.02422 30882 ft 420 kts
2026-05-07 17:28 41.86557 -3.01760 30446 ft 417 kts
2026-05-07 17:29 41.89407 -3.01100 30004 ft 414 kts
2026-05-07 17:29 41.92238 -3.00447 29555 ft 411 kts
2026-05-07 17:29 41.95042 -2.99800 29155 ft 406 kts
2026-05-07 17:29 41.97818 -2.99157 28745 ft 403 kts
2026-05-07 17:30 42.00573 -2.98518 28351 ft 400 kts
2026-05-07 17:30 42.03307 -2.97880 27961 ft 397 kts
2026-05-07 17:30 42.06015 -2.97247 27575 ft 394 kts
2026-05-07 17:30 42.08710 -2.96620 27188 ft 391 kts
2026-05-07 17:31 42.11386 -2.96001 26791 ft 389 kts
2026-05-07 17:31 42.14038 -2.95387 26397 ft 386 kts
2026-05-07 17:31 42.15788 -2.94980 26139 ft 384 kts
2026-05-07 17:31 42.18419 -2.94368 25726 ft 383 kts
2026-05-07 17:32 42.21033 -2.93757 25328 ft 379 kts
2026-05-07 17:32 42.23628 -2.93149 24922 ft 378 kts
2026-05-07 17:32 42.27050 -2.92349 24372 ft 376 kts
2026-05-07 17:32 42.28789 -2.91943 24089 ft 374 kts
2026-05-07 17:33 42.31347 -2.91347 23680 ft 373 kts
2026-05-07 17:33 42.33911 -2.90749 23222 ft 372 kts
2026-05-07 17:33 42.36448 -2.90156 22794 ft 369 kts
2026-05-07 17:33 42.38972 -2.89565 22386 ft 367 kts
2026-05-07 17:34 42.41479 -2.88979 21977 ft 364 kts
2026-05-07 17:34 42.43967 -2.88398 21567 ft 361 kts
2026-05-07 17:34 42.46449 -2.88009 21163 ft 357 kts
2026-05-07 17:34 42.48898 -2.87876 20765 ft 355 kts
2026-05-07 17:35 42.51358 -2.87741 20361 ft 353 kts
2026-05-07 17:35 42.53804 -2.87606 19960 ft 351 kts
2026-05-07 17:35 42.56239 -2.87474 19559 ft 349 kts
2026-05-07 17:35 42.58669 -2.87344 19162 ft 348 kts
2026-05-07 17:36 42.61077 -2.87214 18773 ft 347 kts
2026-05-07 17:36 42.63484 -2.87083 18375 ft 346 kts
2026-05-07 17:36 42.65884 -2.86951 17947 ft 344 kts
2026-05-07 17:36 42.68272 -2.86822 17543 ft 342 kts
2026-05-07 17:37 42.70640 -2.86710 17154 ft 339 kts 357°
2026-05-07 17:37 42.72960 -2.87073 16765 ft 333 kts 344°
2026-05-07 17:37 42.75131 -2.88095 16383 ft 328 kts 332°
2026-05-07 17:37 42.77119 -2.89584 15997 ft 325 kts 328°
2026-05-07 17:38 42.79074 -2.91100 15627 ft 323 kts 328°
2026-05-07 17:38 42.81025 -2.92609 15262 ft 322 kts 328°
2026-05-07 17:38 42.82969 -2.94110 14889 ft 320 kts 328°
2026-05-07 17:38 42.84881 -2.95585 14524 ft 319 kts 328°
2026-05-07 17:39 42.86813 -2.97081 14155 ft 319 kts 328°
2026-05-07 17:39 42.88747 -2.98579 13782 ft 318 kts 328°
2026-05-07 17:39 42.90670 -3.00069 13386 ft 317 kts 328°
2026-05-07 17:39 42.92581 -3.01552 13009 ft 315 kts 328°
2026-05-07 17:40 42.94485 -3.03030 12632 ft 313 kts 328°
2026-05-07 17:40 42.96374 -3.04497 12261 ft 311 kts 329°
2026-05-07 17:40 42.98232 -3.05941 11902 ft 310 kts 328°
2026-05-07 17:40 43.00105 -3.07401 11521 ft 309 kts 328°
2026-05-07 17:41 43.01975 -3.08859 11153 ft 308 kts 328°
2026-05-07 17:41 43.03829 -3.10306 10784 ft 306 kts 329°
2026-05-07 17:41 43.05675 -3.11747 10415 ft 305 kts 329°
2026-05-07 17:41 43.07515 -3.13184 10043 ft 304 kts 329°
2026-05-07 17:42 43.09345 -3.14614 9769 ft 299 kts 328°
2026-05-07 17:42 43.11134 -3.16007 9561 ft 292 kts 329°
2026-05-07 17:42 43.12871 -3.17359 9428 ft 283 kts 328°
2026-05-07 17:42 43.14557 -3.18676 9180 ft 277 kts 328°
2026-05-07 17:43 43.16272 -3.20023 8522 ft 289 kts 329°
2026-05-07 17:43 43.18000 -3.21384 8105 ft 290 kts 329°
2026-05-07 17:43 43.19749 -3.22759 7751 ft 291 kts 328°
2026-05-07 17:43 43.21502 -3.24140 7347 ft 287 kts 328°
2026-05-07 17:44 43.23220 -3.25492 6851 ft 282 kts 328°
2026-05-07 17:44 43.24908 -3.26771 6487 ft 272 kts 335°
2026-05-07 17:44 43.26687 -3.27527 6152 ft 264 kts 351°
2026-05-07 17:44 43.28478 -3.27789 5928 ft 260 kts 355°
2026-05-07 17:45 43.30292 -3.27895 5612 ft 262 kts 359°
2026-05-07 17:45 43.32117 -3.27826 5371 ft 260 kts
2026-05-07 17:45 43.33898 -3.27586 5194 ft 253 kts
2026-05-07 17:45 43.35607 -3.27201 5068 ft 244 kts 12°
2026-05-07 17:46 43.37168 -3.26544 4973 ft 233 kts 27°
2026-05-07 17:46 43.38463 -3.25326 4920 ft 219 kts 46°
2026-05-07 17:46 43.39374 -3.23775 4866 ft 200 kts 62°
2026-05-07 17:46 43.39907 -3.22101 4725 ft 184 kts 78°
2026-05-07 17:47 43.40109 -3.20451 4570 ft 166 kts 91°
2026-05-07 17:47 43.40041 -3.18931 4396 ft 153 kts 104°
2026-05-07 17:47 43.39749 -3.17546 4219 ft 149 kts 116°
2026-05-07 17:47 43.39298 -3.16271 4017 ft 147 kts 120°
2026-05-07 17:48 43.38849 -3.15029 3837 ft 141 kts 120°
2026-05-07 17:48 43.38415 -3.13832 3634 ft 139 kts 120°
2026-05-07 17:48 43.37982 -3.12642 3441 ft 139 kts 120°
2026-05-07 17:48 43.37557 -3.11472 3258 ft 138 kts 120°
2026-05-07 17:49 43.37128 -3.10293 3065 ft 138 kts 120°
2026-05-07 17:49 43.36700 -3.09117 2870 ft 138 kts 119°
2026-05-07 17:49 43.36269 -3.07934 2682 ft 138 kts 118°
2026-05-07 17:49 43.35841 -3.06757 2495 ft 137 kts 118°
2026-05-07 17:50 43.35415 -3.05588 2306 ft 138 kts 118°
2026-05-07 17:50 43.34985 -3.04407 2107 ft 137 kts 118°
2026-05-07 17:50 43.34557 -3.03235 1911 ft 137 kts 118°
2026-05-07 17:50 43.34129 -3.02061 1723 ft 138 kts 118°
2026-05-07 17:51 43.33696 -3.00875 1520 ft 140 kts 117°
2026-05-07 17:51 43.33259 -2.99677 1326 ft 141 kts 116°
2026-05-07 17:51 43.32811 -2.98472 1083 ft 142 kts 117°
2026-05-07 17:51 43.32369 -2.97261 910 ft 141 kts 116°
2026-05-07 17:52 43.31930 -2.96053 755 ft 142 kts 116°
2026-05-07 17:52 43.31499 -2.94884 584 ft 138 kts 116°
2026-05-07 17:52 43.31078 -2.93718 380 ft 134 kts 115°
2026-05-07 17:52 43.30663 -2.92576 175 ft 131 kts 115°
2026-05-07 17:53 43.30272 -2.91489 125 ft 115 kts 115°
2026-05-07 17:53 43.30018 -2.90804 124 ft 41 kts 116°
2026-05-07 17:53 43.29939 -2.90548 123 ft 26 kts 104°
2026-05-07 17:53 43.29926 -2.90340 128 ft 19 kts 88°
2026-05-07 17:54 43.29932 -2.90258 128 ft 3 kts 77°
2026-05-07 17:54 43.29963 -2.90226 127 ft 7 kts 12°
2026-05-07 17:54 43.30006 -2.90269 126 ft 9 kts 299°
2026-05-07 17:54 43.30038 -2.90356 126 ft 11 kts 293°
2026-05-07 17:55 43.30077 -2.90464 126 ft 14 kts 296°
2026-05-07 17:55 43.30129 -2.90568 126 ft 14 kts 336°
2026-05-07 17:55 43.30190 -2.90548 124 ft 8 kts 26°
2026-05-07 17:55 43.30236 -2.90530 126 ft 8 kts 355°
2026-05-07 17:56 43.30291 -2.90567 125 ft 10 kts 327°
2026-05-07 17:56 43.30346 -2.90635 126 ft 10 kts 300°
2026-05-07 17:56 43.30378 -2.90714 123 ft 5 kts 323°
2026-05-07 17:56 43.30418 -2.90701 123 ft 6 kts 24°
2026-05-07 17:57 43.30442 -2.90685 124 ft 2 kts 27°
2026-05-07 17:57 43.30444 -2.90683 124 ft 0 kts 27°